Regional Weather Roundup
Issued by NWS

Home | Current Version | Previous Version | Graphics & Text | Print | Product List | Glossary On
Versions: 1 2 3 4 5 6 7 8 9 10 11 12 13 14 15 16 17 18 19 20 21 22 23 24 25 26 27 28 29 30 31 32 33 34 35 36 37 38 39 40 41 42 43 44 45 46 47 48 49 50
000
ASUS43 KLSX 040957
RWRMO

WEATHER SUMMARY FOR MISSOURI
NATIONAL WEATHER SERVICE SPRINGFIELD MO
400 AM CST SUN DEC 04 2016

NOTE: "FAIR" INDICATES FEW OR NO CLOUDS BELOW 12,000 FEET WITH NO
       SIGNIFICANT WEATHER AND/OR OBSTRUCTIONS TO VISIBILITY.
       CURRENT SKY AND/OR WEATHER CONDITIONS ARE NOT AVAILABLE FOR
       CHILLICOTHE AND FARMINGTON.

MOZ001>031-035>038-043-044-053-054-041100-
...NORTHERN AND WESTERN MISSOURI...

CITY           SKY/WX    TMP DP  RH WIND       PRES   REMARKS
KANSAS CTY INT LGT RAIN  40  37  89 S7        30.03F
LEE`S SUMMIT   LGT RAIN  39  38  96 SE13      30.02F
ST JOSEPH      LGT RAIN  40  38  93 SE5       30.04F FOG
CHILLICOTHE      N/A     39  37  92 SE6       30.07F

$$
MOZ066>068-077>081-088>096-101>105-041100-
...SOUTHWEST MISSOURI...

CITY           SKY/WX    TMP DP  RH WIND       PRES   REMARKS
SPRINGFIELD    LGT RAIN  38  36  92 SE9       30.02F FOG
JOPLIN         LGT RAIN  40  40 100 E5        30.02F FOG

$$
MOZ032>034-039>042-045>050-055>058-069>072-041100-
...CENTRAL MISSOURI...

CITY           SKY/WX    TMP DP  RH WIND       PRES   REMARKS
COLUMBIA       NOT AVBL
JEFFERSON CITY CLOUDY    38  35  89 E6        30.10F FOG
ROLLA          CLOUDY    36  35  96 E6        30.06S FOG
SEDALIA        LGT RAIN  38  36  92 E8        30.07F FOG
WHITEMAN AFB   DRIZZLE   37  37 100 SE6       30.05F
WARRENSBURG    DRIZZLE   37  36  93 E7        30.06F

$$
MOZ051-052-059>065-041100-
...EAST CENTRAL MISSOURI...

CITY           SKY/WX    TMP DP  RH WIND       PRES   REMARKS
ST LOUIS INTL  LGT RAIN  39  33  79 E10       30.13F

$$
MOZ072>076-082>087-097>100-106>115-041100-
...SOUTH CENTRAL AND SOUTHEAST MISSOURI...

CITY           SKY/WX    TMP DP  RH WIND       PRES   REMARKS
CAPE GIRARDEAU CLOUDY    39  35  86 E8        30.11F
FARMINGTON     CLOUDY    36  36 100 E3        30.10F FOG
POPLAR BLUFF   CLOUDY    39  38  96 NE8       30.10F FOG
WEST PLAINS    CLOUDY    37  36  96 E7        30.06S

$$



USA.gov is the U.S. government's official web portal to all federal, state and local government web resources and services.